Weather History for KMLE - May, 2013

Change the Weather History Date:

Friday, May 24, 2013

  Actual Average (KOMA) Record (KOMA)
Temperature  
Mean Temperature 62 °F 65 °F  
Max Temperature 75 °F 76 °F 99 °F (1939)
Min Temperature 50 °F 54 °F 36 °F (1924)
Degree Days  
Heating Degree Days 2 3  
Month to date heating degree days 131  
Since 1 July heating degree days 6133  
Cooling Degree Days 0 3  
Month to date cooling degree days 41  
Year to date cooling degree days 57  
Growing Degree Days 12 (Base 50)    
Moisture  
Dew Point 47 °F    
Average Humidity 57    
Maximum Humidity 84    
Minimum Humidity 35    
Precipitation  
Precipitation 0.00 in 0.15 in 2.28 in (2004)
Month to date precipitation 3.64  
Year to date precipitation 10.16  
Snow  
Snow 0.00 in 0.00 in - ()
Month to date snowfall 0.1  
Since 1 July snowfall 26.5  
Snow Depth -    
Sea Level Pressure  
Sea Level Pressure 30.20 in    
Wind  
Wind Speed 7 mph (SE)    
Max Wind Speed 22 mph    
Max Gust Speed 30 mph    
Visibility 10 miles    
Events Thunderstorm    
T = Trace of Precipitation, MM = Missing Value Source: NWS Daily Summary

Daily Weather History Graph

Daily Weather History Graph

Search for Another Location

Airport or City:

Trip Planner

Search our weather history database for the weather conditions in past years. The results will help you decide how hot, cold, wet, or windy it might be!

Date:

Astronomy

May. 24, 2013 Rise Set
Actual Time 5:58 AM CDT 8:44 PM CDT
Civil Twilight 5:26 AM CDT 9:17 PM CDT
Nautical Twilight 4:45 AM CDT 9:57 PM CDT
Astronomical Twilight 3:59 AM CDT 10:44 PM CDT
Moon 8:27 PM CDT (5/24) 5:31 AM CDT (5/24)
Length of Visible Light 15h 51m
Length of Day
14h 46m
Full, 100% of the Moon is Illuminated
May 24
Full
May 24
Full
May 31
Last Quarter
Jun 8
New
Jun 16
First Quarter

Hourly Weather History & Observations

Time (CDT) Temp. Dew Point Humidity Pressure Visibility Wind Dir Wind Speed Gust Speed Precip Events Conditions
12:15 AM 54.7 °F 45.9 °F 72% 30.24 in 10.0 mi Calm Calm - N/A   Clear
12:35 AM 54.3 °F 46.2 °F 74% 30.25 in 10.0 mi Calm Calm - N/A   Clear
12:55 AM 53.1 °F 46.4 °F 78% 30.25 in 10.0 mi Calm Calm - N/A   Clear
1:15 AM 52.3 °F 46.4 °F 80% 30.25 in 10.0 mi Calm Calm - N/A   Clear
1:35 AM 51.8 °F 46.6 °F 82% 30.24 in 10.0 mi Calm Calm - N/A   Clear
1:55 AM 52.0 °F 45.3 °F 78% 30.25 in 10.0 mi Calm Calm - N/A   Clear
2:15 AM 51.8 °F 47.1 °F 84% 30.25 in 10.0 mi Calm Calm - N/A   Clear
2:35 AM 52.7 °F 44.8 °F 74% 30.25 in 10.0 mi ESE 3.5 mph - N/A   Clear
2:55 AM 54.9 °F 44.6 °F 68% 30.24 in 10.0 mi ESE 4.6 mph - N/A   Clear
3:15 AM 54.3 °F 44.4 °F 69% 30.24 in 10.0 mi East 4.6 mph - N/A   Clear
3:35 AM 54.5 °F 44.2 °F 68% 30.25 in 10.0 mi SE 5.8 mph - N/A   Clear
3:55 AM 53.4 °F 43.9 °F 70% 30.26 in 10.0 mi SE 3.5 mph - N/A   Clear
4:15 AM 52.3 °F 43.9 °F 73% 30.26 in 10.0 mi ESE 4.6 mph - N/A   Clear
4:35 AM 52.9 °F 43.7 °F 71% 30.26 in 10.0 mi SE 5.8 mph - N/A   Clear
4:55 AM 51.4 °F 43.3 °F 74% 30.27 in 10.0 mi SE 4.6 mph - N/A   Clear
5:15 AM 52.0 °F 44.1 °F 74% 30.26 in 10.0 mi ESE 3.5 mph - N/A   Clear
5:35 AM 50.7 °F 43.5 °F 76% 30.28 in 10.0 mi SSE 4.6 mph - N/A   Clear
5:55 AM 50.9 °F 43.9 °F 77% 30.29 in 10.0 mi ESE 4.6 mph - N/A   Clear
6:15 AM 50.2 °F 43.9 °F 79% 30.28 in 10.0 mi ESE 3.5 mph - N/A   Clear
6:35 AM 50.4 °F 43.9 °F 78% 30.29 in 10.0 mi ESE 5.8 mph - N/A   Clear
6:55 AM 52.7 °F 45.0 °F 75% 30.29 in 10.0 mi ESE 5.8 mph - N/A   Clear
7:15 AM 54.0 °F 45.5 °F 73% 30.29 in 10.0 mi SE 6.9 mph - N/A   Clear
7:35 AM 56.3 °F 46.2 °F 69% 30.29 in 10.0 mi SE 8.1 mph - N/A   Mostly Cloudy
7:55 AM 55.4 °F 46.6 °F 72% 30.30 in 10.0 mi ESE 6.9 mph - N/A   Overcast
8:15 AM 56.3 °F 47.5 °F 72% 30.29 in 10.0 mi SE 5.8 mph - N/A   Overcast
8:35 AM 57.2 °F 47.8 °F 71% 30.29 in 10.0 mi SE 8.1 mph - N/A   Scattered Clouds
8:55 AM 60.3 °F 48.9 °F 66% 30.28 in 10.0 mi ESE 8.1 mph - N/A   Scattered Clouds
9:15 AM 61.2 °F 48.9 °F 64% 30.28 in 10.0 mi SE 10.4 mph - N/A   Clear
9:35 AM 63.1 °F 49.8 °F 62% 30.27 in 10.0 mi SSE 13.8 mph - N/A   Scattered Clouds
9:55 AM 64.9 °F 48.6 °F 55% 30.28 in 10.0 mi SE 16.1 mph 21.9 mph N/A   Clear
10:15 AM 65.7 °F 49.1 °F 55% 30.27 in 10.0 mi SE 16.1 mph - N/A   Clear
10:35 AM 66.7 °F 48.9 °F 53% 30.26 in 10.0 mi SSE 19.6 mph 25.3 mph N/A   Scattered Clouds
10:55 AM 66.9 °F 48.6 °F 52% 30.25 in 10.0 mi SSE 18.4 mph 26.5 mph N/A   Scattered Clouds
11:15 AM 67.6 °F 49.8 °F 53% 30.23 in 10.0 mi SSE 19.6 mph 24.2 mph N/A   Clear
11:35 AM 66.7 °F 48.7 °F 52% 30.23 in 10.0 mi SSE 17.3 mph 25.3 mph N/A   Clear
11:55 AM 68.0 °F 49.8 °F 52% 30.24 in 10.0 mi South 16.1 mph 24.2 mph N/A   Clear
12:15 PM 67.6 °F 49.5 °F 52% 30.24 in 10.0 mi SE 19.6 mph 26.5 mph N/A   Scattered Clouds
12:35 PM 69.6 °F 50.0 °F 50% 30.24 in 10.0 mi SSE 16.1 mph 24.2 mph N/A   Scattered Clouds
12:55 PM 70.2 °F 49.5 °F 48% 30.24 in 10.0 mi SSE 17.3 mph 26.5 mph N/A   Scattered Clouds
1:15 PM 70.7 °F 50.5 °F 49% 30.23 in 10.0 mi SE 20.7 mph 24.2 mph N/A   Clear
1:35 PM 71.2 °F 49.3 °F 46% 30.22 in 10.0 mi SSE 15.0 mph 25.3 mph N/A   Mostly Cloudy
1:55 PM 71.4 °F 48.9 °F 45% 30.21 in 10.0 mi South 15.0 mph 24.2 mph N/A   Overcast
2:15 PM 71.1 °F 49.1 °F 46% 30.21 in 10.0 mi SSE 13.8 mph - N/A   Overcast
2:35 PM 71.6 °F 47.5 °F 42% 30.20 in 10.0 mi SSE 15.0 mph 25.3 mph N/A   Overcast
2:55 PM 71.6 °F 48.2 °F 43% 30.19 in 10.0 mi SE 12.7 mph 20.7 mph N/A   Overcast
3:15 PM 71.4 °F 48.7 °F 45% 30.18 in 10.0 mi SE 17.3 mph 24.2 mph N/A   Overcast
3:35 PM 72.9 °F 45.3 °F 37% 30.16 in 10.0 mi SSE 15.0 mph 21.9 mph N/A   Mostly Cloudy
3:55 PM 74.5 °F 48.4 °F 40% 30.15 in 10.0 mi SE 16.1 mph - N/A   Scattered Clouds
4:15 PM 74.5 °F 47.5 °F 38% 30.13 in 10.0 mi SE 21.9 mph 29.9 mph N/A   Clear
4:35 PM 75.2 °F 45.9 °F 35% 30.12 in 10.0 mi SSE 18.4 mph 29.9 mph N/A   Clear
4:55 PM 73.4 °F 45.1 °F 36% 30.09 in 10.0 mi SE 19.6 mph 28.8 mph N/A   Clear
5:15 PM 73.6 °F 49.1 °F 42% 30.09 in 10.0 mi SE 11.5 mph 25.3 mph N/A   Clear
5:35 PM 74.5 °F 47.7 °F 39% 30.09 in 10.0 mi SE 17.3 mph 21.9 mph N/A   Clear
5:55 PM 74.8 °F 47.3 °F 38% 30.09 in 10.0 mi SE 17.3 mph 26.5 mph N/A Thunderstorm Clear
6:15 PM 73.9 °F 47.7 °F 39% 30.08 in 10.0 mi SE 19.6 mph 24.2 mph N/A   Clear
6:35 PM 73.8 °F 47.5 °F 39% 30.07 in 10.0 mi SE 18.4 mph 26.5 mph N/A   Clear
6:55 PM 72.9 °F 47.3 °F 40% 30.05 in 10.0 mi SE 15.0 mph - N/A   Clear
7:15 PM 72.7 °F 47.3 °F 40% 30.03 in 10.0 mi SE 17.3 mph 28.8 mph N/A   Clear
7:35 PM 72.9 °F 47.5 °F 40% 30.05 in 10.0 mi SE 10.4 mph 20.7 mph N/A   Clear
7:55 PM 71.8 °F 48.0 °F 43% 30.04 in 10.0 mi SE 13.8 mph 23.0 mph N/A   Clear
8:15 PM 71.1 °F 48.4 °F 44% 30.04 in 10.0 mi ESE 15.0 mph 25.3 mph N/A   Clear
8:35 PM 70.3 °F 48.2 °F 45% 30.05 in 10.0 mi ESE 13.8 mph - N/A   Clear
8:55 PM 70.2 °F 48.0 °F 45% 30.03 in 10.0 mi ESE 13.8 mph 19.6 mph N/A   Clear
9:15 PM 68.9 °F 48.4 °F 48% 30.07 in 10.0 mi SE 6.9 mph - N/A   Scattered Clouds
9:35 PM 69.1 °F 48.7 °F 48% 30.11 in 10.0 mi SE 3.5 mph - N/A   Overcast
9:55 PM 68.7 °F 49.1 °F 50% 30.13 in 10.0 mi SE 9.2 mph - N/A   Overcast
10:15 PM 68.9 °F 48.7 °F 49% 30.14 in 10.0 mi SE 9.2 mph - N/A   Overcast
10:35 PM 68.9 °F 48.6 °F 48% 30.14 in 10.0 mi ESE 9.2 mph - N/A   Overcast
10:55 PM 68.4 °F 48.4 °F 49% 30.14 in 10.0 mi ESE 8.1 mph - N/A   Overcast
11:15 PM 68.0 °F 48.2 °F 49% 30.13 in 10.0 mi ESE 8.1 mph - N/A Thunderstorm Overcast
11:35 PM 67.3 °F 47.5 °F 49% 30.13 in 10.0 mi ESE 8.1 mph 16.1 mph N/A   Overcast
11:55 PM 66.7 °F 47.5 °F 50% 30.12 in 10.0 mi ESE 9.2 mph - N/A   Overcast